• In Hungary
  • List of Countries
  • For 7 days
  • Water Temperature
  • Satellite Maps
  • Weather Map
  • News
  • Weather Widgets
  • user-avatar
    Login

    Hourly Weather San Marcos La Laguna

    Today, 16 December, Saturday

    Time Temperature Precipitation Wind Pressure Humidity
    00:00 +11°C° 0 mm 1 mps 584 mmHg 84%
    01:00 +11°C° 0 mm 1 mps 584 mmHg 83%
    02:00 +11°C° 0 mm 1 mps 584 mmHg 83%
    03:00 +12°C° 0 mm 1 mps 584 mmHg 82%
    04:00 +11°C° 0 mm 1 mps 584 mmHg 82%
    05:00 +11°C° 0 mm 1 mps 584 mmHg 81%
    06:00 +11°C° 0 mm 1 mps 584 mmHg 81%
    07:00 +13°C° 0 mm 1 mps 585 mmHg 74%
    08:00 +15°C° 0 mm 1 mps 586 mmHg 68%
    09:00 +16°C° 0 mm 2 mps 587 mmHg 62%
    10:00 +18°C° 0 mm 2 mps 587 mmHg 57%
    11:00 +19°C° 0 mm 2 mps 587 mmHg 52%
    12:00 +20°C° 0 mm 2 mps 588 mmHg 47%
    13:00 +19°C° 0 mm 2 mps 587 mmHg 52%
    14:00 +18°C° 0 mm 2 mps 586 mmHg 57%
    15:00 +18°C° 0 mm 2 mps 585 mmHg 61%
    16:00 +16°C° 0 mm 2 mps 584 mmHg 69%
    17:00 +14°C° 0 mm 1 mps 584 mmHg 77%
    18:00 +12°C° 0 mm 1 mps 583 mmHg 85%
    19:00 +12°C° 0 mm 1 mps 584 mmHg 84%
    20:00 +12°C° 0 mm 1 mps 584 mmHg 83%
    21:00 +11°C° 0 mm 1 mps 584 mmHg 82%
    22:00 +11°C° 0 mm 1 mps 584 mmHg 81%
    23:00 +11°C° 0 mm 1 mps 584 mmHg 80%

    Tomorrow, 17 December, Sunday

    Time Temperature Precipitation Wind Pressure Humidity
    00:00 +11°C° 0 mm 1 mps 584 mmHg 79%
    01:00 +11°C° 0 mm 1 mps 584 mmHg 79%
    02:00 +11°C° 0 mm 1 mps 584 mmHg 78%
    03:00 +11°C° 0 mm 1 mps 583 mmHg 78%
    04:00 +11°C° 0 mm 1 mps 583 mmHg 78%
    05:00 +11°C° 0 mm 1 mps 583 mmHg 78%
    06:00 +11°C° 0 mm 1 mps 584 mmHg 78%
    07:00 +13°C° 0 mm 1 mps 585 mmHg 71%
    08:00 +15°C° 0 mm 1 mps 586 mmHg 64%
    09:00 +18°C° 0 mm 1 mps 588 mmHg 58%
    10:00 +20°C° 0 mm 1 mps 588 mmHg 52%
    11:00 +20°C° 0 mm 2 mps 588 mmHg 46%
    12:00 +21°C° 0 mm 2 mps 588 mmHg 40%
    13:00 +21°C° 0 mm 2 mps 588 mmHg 40%
    14:00 +21°C° 0 mm 2 mps 587 mmHg 41%
    15:00 +20°C° 0 mm 3 mps 586 mmHg 41%
    16:00 +18°C° 0 mm 2 mps 585 mmHg 52%
    17:00 +15°C° 0 mm 2 mps 584 mmHg 62%
    18:00 +13°C° 0 mm 1 mps 583 mmHg 73%
    19:00 +12°C° 0 mm 1 mps 584 mmHg 72%
    20:00 +12°C° 0 mm 1 mps 584 mmHg 71%
    21:00 +12°C° 0 mm 1 mps 584 mmHg 70%
    22:00 +11°C° 0 mm 1 mps 584 mmHg 72%
    23:00 +11°C° 0 mm 1 mps 584 mmHg 74%

    Day after tomorrow, 18 December, Monday

    Time Temperature Precipitation Wind Pressure Humidity
    00:00 +11°C° 0 mm 1 mps 584 mmHg 76%
    01:00 +11°C° 0 mm 1 mps 584 mmHg 76%
    02:00 +11°C° 0 mm 1 mps 584 mmHg 77%
    03:00 +11°C° 0 mm 1 mps 583 mmHg 78%
    04:00 +11°C° 0 mm 1 mps 583 mmHg 78%
    05:00 +11°C° 0 mm 1 mps 584 mmHg 78%
    06:00 +11°C° 0 mm 1 mps 584 mmHg 78%
    07:00 +13°C° 0 mm 1 mps 585 mmHg 71%
    08:00 +15°C° 0 mm 1 mps 586 mmHg 63%
    09:00 +19°C° 0 mm 1 mps 588 mmHg 56%
    10:00 +20°C° 0 mm 1 mps 588 mmHg 53%
    11:00 +20°C° 0 mm 2 mps 588 mmHg 50%
    12:00 +21°C° 0 mm 2 mps 588 mmHg 47%
    13:00 +20°C° 0 mm 2 mps 588 mmHg 50%
    14:00 +20°C° 0 mm 2 mps 587 mmHg 52%
    15:00 +19°C° 0 mm 2 mps 586 mmHg 54%
    16:00 +17°C° 0 mm 2 mps 585 mmHg 63%
    17:00 +15°C° 0 mm 1 mps 584 mmHg 72%
    18:00 +13°C° 0 mm 1 mps 584 mmHg 82%
    19:00 +13°C° 0 mm 1 mps 584 mmHg 82%
    20:00 +12°C° 0 mm 1 mps 585 mmHg 81%
    21:00 +12°C° 0 mm 1 mps 585 mmHg 81%
    22:00 +12°C° 0 mm 1 mps 585 mmHg 81%
    23:00 +12°C° 0 mm 1 mps 585 mmHg 80%

    19 December, Tuesday

    Time Temperature Precipitation Wind Pressure Humidity
    00:00 +11°C° 0 mm 1 mps 585 mmHg 79%
    01:00 +11°C° 0 mm 1 mps 584 mmHg 79%
    02:00 +11°C° 0 mm 1 mps 584 mmHg 78%
    03:00 +11°C° 0 mm 1 mps 583 mmHg 78%
    04:00 +11°C° 0 mm 1 mps 584 mmHg 77%
    05:00 +11°C° 0 mm 1 mps 584 mmHg 77%
    06:00 +11°C° 0 mm 1 mps 584 mmHg 77%
    07:00 +13°C° 0 mm 1 mps 585 mmHg 71%
    08:00 +15°C° 0 mm 1 mps 587 mmHg 65%
    09:00 +19°C° 0 mm 1 mps 588 mmHg 59%
    10:00 +20°C° 0 mm 1 mps 588 mmHg 54%
    11:00 +20°C° 0 mm 2 mps 588 mmHg 50%
    12:00 +21°C° 0 mm 2 mps 588 mmHg 45%
    13:00 +20°C° 0 mm 2 mps 587 mmHg 48%
    14:00 +20°C° 0 mm 2 mps 586 mmHg 52%
    15:00 +19°C° 0 mm 2 mps 586 mmHg 55%
    16:00 +17°C° 0 mm 2 mps 585 mmHg 64%
    17:00 +15°C° 0 mm 1 mps 584 mmHg 73%
    18:00 +13°C° 0 mm 1 mps 584 mmHg 81%
    19:00 +13°C° 0 mm 1 mps 584 mmHg 81%
    20:00 +12°C° 0 mm 1 mps 584 mmHg 80%
    21:00 +12°C° 0 mm 1 mps 585 mmHg 80%
    22:00 +12°C° 0 mm 1 mps 585 mmHg 79%
    23:00 +12°C° 0 mm 1 mps 584 mmHg 79%

    20 December, Wednesday

    Time Temperature Precipitation Wind Pressure Humidity
    00:00 +12°C° 0 mm 1 mps 584 mmHg 78%
    01:00 +11°C° 0 mm 1 mps 584 mmHg 78%
    02:00 +11°C° 0 mm 1 mps 584 mmHg 78%
    03:00 +11°C° 0 mm 1 mps 583 mmHg 78%
    04:00 +11°C° 0 mm 1 mps 583 mmHg 78%
    05:00 +11°C° 0 mm 1 mps 583 mmHg 78%
    06:00 +11°C° 0 mm 1 mps 583 mmHg 79%
    07:00 +13°C° 0 mm 1 mps 585 mmHg 71%
    08:00 +15°C° 0 mm 1 mps 586 mmHg 64%
    09:00 +19°C° 0 mm 1 mps 588 mmHg 57%
    10:00 +20°C° 0 mm 1 mps 588 mmHg 53%
    11:00 +20°C° 0 mm 2 mps 588 mmHg 49%
    12:00 +21°C° 0 mm 2 mps 588 mmHg 45%
    13:00 +21°C° 0 mm 2 mps 587 mmHg 48%
    14:00 +20°C° 0 mm 2 mps 586 mmHg 51%
    15:00 +19°C° 0 mm 2 mps 586 mmHg 54%
    16:00 +17°C° 0 mm 2 mps 585 mmHg 64%
    17:00 +15°C° 0 mm 1 mps 584 mmHg 74%
    18:00 +13°C° 0 mm 1 mps 583 mmHg 83%
    19:00 +13°C° 0 mm 1 mps 584 mmHg 82%
    20:00 +12°C° 0 mm 1 mps 584 mmHg 81%
    21:00 +12°C° 0 mm 1 mps 584 mmHg 80%
    22:00 +12°C° 0 mm 1 mps 584 mmHg 79%
    23:00 +12°C° 0 mm 1 mps 583 mmHg 79%

    21 December, Thursday

    Time Temperature Precipitation Wind Pressure Humidity
    00:00 +11°C° 0 mm 1 mps 583 mmHg 78%
    01:00 +12°C° 0 mm 1 mps 583 mmHg 78%
    02:00 +12°C° 0 mm 1 mps 583 mmHg 79%
    03:00 +12°C° 0 mm 1 mps 583 mmHg 79%
    04:00 +12°C° 0 mm 1 mps 583 mmHg 79%
    05:00 +11°C° 0 mm 1 mps 583 mmHg 79%
    06:00 +11°C° 0 mm 1 mps 583 mmHg 79%
    07:00 +13°C° 0 mm 1 mps 584 mmHg 73%
    08:00 +15°C° 0 mm 1 mps 586 mmHg 66%
    09:00 +18°C° 0 mm 1 mps 587 mmHg 60%
    10:00 +20°C° 0 mm 1 mps 587 mmHg 55%
    11:00 +20°C° 0 mm 2 mps 587 mmHg 51%
    12:00 +21°C° 0 mm 2 mps 587 mmHg 46%
    13:00 +21°C° 0 mm 2 mps 587 mmHg 48%
    14:00 +20°C° 0 mm 2 mps 586 mmHg 50%
    15:00 +20°C° 0 mm 2 mps 585 mmHg 52%
    16:00 +18°C° 0 mm 2 mps 584 mmHg 62%
    17:00 +15°C° 0 mm 1 mps 584 mmHg 73%
    18:00 +13°C° 0 mm 1 mps 583 mmHg 84%
    19:00 +13°C° 0 mm 1 mps 583 mmHg 82%
    20:00 +12°C° 0 mm 1 mps 583 mmHg 81%
    21:00 +12°C° 0 mm 1 mps 583 mmHg 80%
    22:00 +11°C° 0 mm 1 mps 583 mmHg 79%
    23:00 +11°C° 0 mm 1 mps 583 mmHg 78%
    Show more